Regional Weather Roundup
Issued by NWS

Home | Current Version | Previous Version | Graphics & Text | Print | Product List | Glossary On
Versions: 1 2 3 4 5 6 7 8 9 10 11 12 13 14 15 16 17 18 19 20 21 22 23 24 25 26 27 28 29 30 31 32 33 34 35 36 37 38 39 40 41 42 43 44 45 46 47 48 49 50
000
ASUS43 KMKX 241000
RWRWI

WISCONSIN REGIONAL WEATHER ROUNDUP
NATIONAL WEATHER SERVICE MILWAUKEE/SULLIVAN WI
500 AM CDT WED MAY 24 2017

NOTE: "FAIR" INDICATES FEW OR NO CLOUDS BELOW 12,000 FEET WITH NO
SIGNIFICANT WEATHER AND/OR OBSTRUCTIONS TO VISIBILITY.

WIZ001-002-006>008-014>016-023>028-241100-
NORTHWEST WISCONSIN

CITY           SKY/WX    TMP DP  RH WIND       PRES   REMARKS
SUPERIOR ARPT  NOT AVBL
ASHLAND        CLOUDY    46  43  89 NE6       29.82S
HAYWARD        CLOUDY    46  42  86 NE8       29.80F
SIREN          MOCLDY    44  42  93 CALM      29.81F
CUMBERLAND     CLOUDY    45  41  87 N12       29.79S
RICE LAKE      CLOUDY    46  42  86 N12       29.79S
CHETEK         CLOUDY    46  44  93 N5        29.78S
LADYSMITH      CLOUDY    45  43  93 N8        29.79S
EAU CLAIRE     NOT AVBL
MENOMONIE      LGT RAIN  47  45  94 NW6       29.77S
NEW RICHMOND   PTCLDY    45  42  92 N6        29.79S
OSCEOLA        CLOUDY    45  45 100 N5        29.82F
$$

WIZ003>005-009-010-017-018-241100-
NORTH CENTRAL WISCONSIN

CITY           SKY/WX    TMP DP  RH WIND       PRES   REMARKS
MANITOWISH WTR CLOUDY    45  45 100 NE5       29.78S
ARBOR VITAE    CLOUDY    46  43  90 NE6       29.77S
WOODRUFF       CLOUDY    46  43  90 NE6       29.77S
RHINELANDER    RAIN      47  44  90 N5        29.76S
EAGLE RIVER    CLOUDY    46  44  93 N6        29.76S
LAND O LAKES   CLOUDY    46  43  91 N6        29.79S
PHILLIPS       CLOUDY    45  43  93 NE12      29.77S
TOMAHAWK       DRIZZLE   45  42  89 N3        29.76S
MEDFORD        CLOUDY    46  43  89 N7        29.74S
MERRILL        DRIZZLE   46  46 100 N6        29.74S
$$

WIZ029-030-035-036-043>047-241100-
CENTRAL WISCONSIN

CITY           SKY/WX    TMP DP  RH WIND       PRES   REMARKS
WAUSAU         LGT RAIN  47  46  97 N3        29.72R
MOSINEE        RAIN      46  46 100 N7        29.73S
MARSHFIELD     LGT RAIN  49  46  90 NE9       29.71S
STEVENS POINT  DRIZZLE   46  46 100 N6        29.72S
WAUPACA        CLOUDY    50  48  94 N6        29.71S
WAUTOMA        CLOUDY    48  47  96 N10       29.69F
WISC RAPIDS    LGT RAIN  49  47  93 NE9G18    29.72S FOG
CAMP DOUGLAS   CLOUDY    50  50 100 N5        29.70S
$$

WIZ011>013-019>022-031-037>040-048>050-241100-
NORTHEAST WISCONSIN

CITY           SKY/WX    TMP DP  RH WIND       PRES   REMARKS
ANTIGO         LGT RAIN  45  45  98 NE6       29.73S
SHAWANO        DRIZZLE   50  47  92 NE10      29.71F
OCONTO         CLOUDY    47  46  97 N6        29.71S
STURGEON BAY   CLOUDY    48  46  93 NE6       29.71R
GREEN BAY      CLOUDY    49  49 100 NE15      29.69S
MANITOWOC      NOT AVBL
APPLETON       CLOUDY    46  46 100 NE10      29.67S
CLINTONVILLE   DRIZZLE   46  46 100 N8        29.71S
OSHKOSH        CLOUDY    50  48  93 NE9       29.67S FOG
$$

WIZ032>034-041-042-053>061-241100-
SOUTHWEST WISCONSIN

CITY           SKY/WX    TMP DP  RH WIND       PRES   REMARKS
LA CROSSE      CLOUDY    52  49  89 N6        29.71F
SPARTA         CLOUDY    48  48 100 N6        29.72S
VIROQUA        CLOUDY    48  48  97 MISG      29.70S
BOSCOBEL       CLOUDY    52  49  89 N6        29.68S
PRAIRIE DU CHI CLOUDY    51  48  90 N7        29.68S
PLATTEVILLE    CLOUDY    52  52  99 NE10      29.66S
$$

WIZ056-057-062-063-064-067-068-241100-
SOUTH CENTRAL WISCONSIN

CITY           SKY/WX    TMP DP  RH WIND       PRES   REMARKS
REEDSBURG      CLOUDY    49  49 100 N6        29.68S
BARABOO/DELLS  CLOUDY    49  47  95 NE6       29.68S FOG
LONE ROCK      NOT AVBL
MINERAL POINT  CLOUDY    52  52 100 NE10      29.66S
MADISON        CLOUDY    50  48  93 NE7       29.66S
MIDDLETON      CLOUDY    51  51 100 NE7       29.67S
WATERTOWN      CLOUDY    48  48 100 N5        29.66R FOG
MONROE         CLOUDY    50  50 100 NE9       29.64S FOG
JANESVILLE     CLOUDY    52  52 100 N6        29.64R FOG
$$

WIZ051-052-058>065-066-070>072-241100-
SOUTHEAST WISCONSIN

CITY           SKY/WX    TMP DP  RH WIND       PRES   REMARKS
MILWAUKEE      LGT RAIN  48  47  96 N10       29.65S VSB 1
WAUKESHA       LGT RAIN  46  46 100 CALM      29.66S
MILWAUKEE/TIMM DRIZZLE   46  45  93 NE3       29.66S
RACINE         RAIN      47  46  97 N7        29.66F FOG
KENOSHA        LGT RAIN  50  48  93 NE6       29.63F FOG
FOND DU LAC    CLOUDY    50  48  93 NE7       29.67S
SHEBOYGAN      LGT RAIN  48  48 100 NE6       29.67S FOG
WEST BEND      CLOUDY    46  46 100 N3        29.66S FOG
JUNEAU         FOG       48  48  99 N3        29.67S VSB 1
$$

LSZ147-162-241100-
LAKE SUPERIOR

STATION/POSITION TIME  TEMP    WIND        PRES    WAVE
                       AIR SEA DIR/SP/G            HT/PER
                 (UTC) (F)     (DEG/KT/KT) (MB)    (FT/S)
W MID LAKE BUOY  0850   40 37   20/ 10/ 12 1010.8F   1
DEVILS ISLAND    0900   44      30/ 14/ 15 1010.6F
SAXON HARBOR     0940   43     270/  1/  2 1009.8S
$$

LMZ867-665-643>646-241100-
LAKE MICHIGAN

STATION/POSITION TIME  TEMP    WIND        PRES    WAVE
                       AIR SEA DIR/SP/G            HT/PER
                 (UTC) (F)     (DEG/KT/KT) (MB)    (FT/S)
CHAMBERS ISLAND  0940   46     360/ 11/ 13 1005.8F
N MID LAKE BUOY  0850   42 39   40/ 10/ 12 1007.0F   1/ 3
NORTHPORT PIER   0940   47      20/  5/  7 1006.4S
KEWAUNEE LAKESHO 0930   46      20/  9/ 17 1005.1S
SHEBOYGAN LAKESH 0900   45      10/ 12/ 13 1005.0F
PORT WASHINGTON  0940   49      30/  5/  7 1005.8R
ATWATER BUOY     0809   45      10/  8/ 12 1004.6F
MILWAUKEE LAKESH 0930   46      20/  9/ 10   N/A
S MID LAKE BUOY  0850   47 45  360/ 10/ 12 1003.6F   0
KENOSHA   LAKESH 0900   47      10/ 10/ 12 1004.1
$$

TC  - TEMPERATURE IN CELSIUS
VSB - VISIBILITY IN STATUTE MILES
WCI - WIND CHILL INDEX
HX  - HEAT INDEX





USA.gov is the U.S. government's official web portal to all federal, state and local government web resources and services.